Location: Laas
(43.4693°N, 0.3073°E)
Time: 15:25:05
(UTC+00:00)

Cosmos 1992 Rocket - Pass Details

Date: 25 October 2020
Orbit: 759 x 765 km, 74.0° (Epoch: 24 November)

Event Time Altitude Azimuth Distance (km) Brightness Sun altitude
Rises 18:23:52 0° 175° (S) 3,205 7.2 -15.9°
Reaches altitude 10° 18:26:23 10° 166° (SSE) 2,283 6.3 -16.4°
Maximum altitude 18:31:03 36° 102° (ESE) 1,202 4.5 -17.2°
Enters shadow 18:32:53 27° 62° (ENE) 1,424 4.9 -17.6°
